| time (UTC) | temp F | wind direction | speed knots | gust knots | rain 1hr in | rain 24hr in | rain mn in | humidity % | barometer mb |
| 20260508043030 | 45 | 29 | 2.6 | 4.3 | 0.00 | 0.57 | 0.00 | 93 | 1001.7 |
| 20260508041527 | 46 | 34 | 1.7 | 4.3 | 0.00 | 0.57 | 0.00 | 92 | 1001.8 |
| 20260508040022 | 47 | 11 | 2.6 | 4.3 | 0.00 | 0.57 | 0.00 | 93 | 1001.9 |
| 20260508034519 | 49 | 213 | 1.7 | 2.6 | 0.00 | 0.57 | 0.00 | 94 | 1001.8 |
| 20260508033020 | 49 | 213 | 0.0 | 2.6 | 0.00 | 0.57 | 0.00 | 94 | 1001.8 |
| 20260508031519 | 49 | 197 | 0.0 | 1.7 | 0.00 | 0.57 | 0.00 | 94 | 1001.7 |
| 20260508030016 | 49 | 197 | 1.7 | 5.2 | 0.00 | 0.57 | 0.57 | 94 | 1001.7 |
| 20260508024515 | 49 | 226 | 0.0 | 6.1 | 0.00 | 0.57 | 0.57 | 94 | 1001.9 |
| 20260508023015 | 49 | 244 | 1.7 | 4.3 | 0.00 | 0.57 | 0.57 | 94 | 1001.9 |
| 20260508021511 | 49 | 207 | 1.7 | 5.2 | 0.00 | 0.57 | 0.57 | 94 | 1001.9 |
| 20260508020010 | 49 | 281 | 1.7 | 5.2 | 0.00 | 0.57 | 0.57 | 94 | 1002.0 |
| 20260508014508 | 50 | 287 | 1.7 | 4.3 | 0.00 | 0.57 | 0.57 | 95 | 1002.1 |
| 20260508013005 | 50 | 306 | 0.9 | 2.6 | 0.00 | 0.57 | 0.57 | 94 | 1001.7 |
| 20260508011609 | 50 | 307 | 0.0 | 3.5 | 0.00 | 0.57 | 0.57 | 95 | 1001.7 |
| 20260508010006 | 50 | 346 | 0.9 | 3.5 | 0.00 | 0.57 | 0.57 | 94 | 1001.8 |
| 20260508004503 | 50 | 355 | 0.0 | 0.0 | 0.00 | 0.57 | 0.57 | 94 | 1001.8 |
| 20260508003002 | 50 | 355 | 0.0 | 1.7 | 0.00 | 0.57 | 0.57 | 94 | 1002.1 |
| 20260508001502 | 51 | 355 | 0.9 | 4.3 | 0.00 | 0.57 | 0.57 | 94 | 1001.9 |
| 20260508000001 | 51 | 343 | 0.0 | 2.6 | 0.00 | 0.57 | 0.57 | 95 | 1001.6 |
| 20260507234606 | 50 | 344 | 1.7 | 4.3 | 0.00 | 0.57 | 0.57 | 94 | 1001.1 |
| 20260507233057 | 51 | 302 | 1.7 | 3.5 | 0.00 | 0.57 | 0.57 | 93 | 1001.1 |
| 20260507231601 | 51 | 295 | 0.9 | 2.6 | 0.00 | 0.57 | 0.57 | 93 | 1001.2 |
| 20260507230100 | 51 | 295 | 0.0 | 3.5 | 0.00 | 0.57 | 0.57 | 93 | 1000.9 |
| 20260507224555 | 53 | 296 | 1.7 | 2.6 | 0.00 | 0.57 | 0.57 | 91 | 1000.9 |
| 20260507223056 | 54 | 292 | 1.7 | 3.5 | 0.00 | 0.57 | 0.57 | 93 | 1000.8 |
| 20260507221552 | 55 | 282 | 0.0 | 1.7 | 0.00 | 0.57 | 0.57 | 93 | 1000.9 |
| 20260507220052 | 55 | 283 | 0.0 | 2.6 | 0.00 | 0.57 | 0.57 | 93 | 1000.8 |
| 20260507214555 | 55 | 283 | 0.0 | 3.5 | 0.00 | 0.57 | 0.57 | 94 | 1000.8 |
| 20260507213049 | 54 | 214 | 0.0 | 4.3 | 0.01 | 0.57 | 0.57 | 94 | 1001.1 |
| 20260507211551 | 54 | 188 | 6.1 | 10.4 | 0.03 | 0.57 | 0.57 | 93 | 1000.9 |
| 20260507210050 | 54 | 252 | 2.6 | 10.4 | 0.08 | 0.57 | 0.57 | 93 | 1001.7 |
| 20260507204547 | 54 | 172 | 5.2 | 15.6 | 0.14 | 0.57 | 0.57 | 93 | 1000.6 |
| 20260507203049 | 54 | 226 | 6.1 | 13.9 | 0.17 | 0.56 | 0.56 | 92 | 1000.9 |
| 20260507201541 | 54 | 336 | 2.6 | 7.0 | 0.20 | 0.55 | 0.55 | 91 | 1001.6 |
| 20260507200047 | 55 | 161 | 5.2 | 13.0 | 0.21 | 0.50 | 0.50 | 91 | 1001.7 |
| 20260507194537 | 55 | 163 | 3.5 | 13.9 | 0.20 | 0.44 | 0.44 | 92 | 1002.8 |
| 20260507193035 | 55 | 150 | 7.8 | 14.8 | 0.28 | 0.40 | 0.40 | 91 | 1002.8 |
| 20260507191532 | 56 | 211 | 5.2 | 13.0 | 0.31 | 0.35 | 0.35 | 91 | 1002.8 |
| 20260507190033 | 56 | 159 | 7.0 | 18.2 | 0.28 | 0.28 | 0.28 | 91 | 1002.9 |
| 20260507184531 | 57 | 158 | 5.2 | 15.6 | 0.23 | 0.24 | 0.24 | 90 | 1003.3 |
| 20260507183037 | 58 | 190 | 9.6 | 16.5 | 0.11 | 0.12 | 0.12 | 88 | 1003.4 |
| 20260507181527 | 60 | 215 | 4.3 | 13.0 | 0.02 | 0.02 | 0.02 | 85 | 1003.5 |
| 20260507180036 | 62 | 216 | 12.2 | 26.9 | 0.00 | 0.01 | 0.01 | 79 | 1002.8 |
| 20260507174532 | 62 | 150 | 7.8 | 21.7 | 0.00 | 0.01 | 0.01 | 78 | 1002.5 |
| 20260507173023 | 63 | 126 | 10.4 | 29.5 | 0.00 | 0.01 | 0.01 | 77 | 1002.6 |
| 20260507171522 | 63 | 154 | 9.6 | 29.5 | 0.00 | 0.01 | 0.01 | 78 | 1003.0 |
| 20260507170022 | 63 | 194 | 13.9 | 29.5 | 0.00 | 0.01 | 0.01 | 76 | 1002.9 |
| 20260507164520 | 63 | 205 | 11.3 | 25.2 | 0.00 | 0.01 | 0.01 | 77 | 1002.8 |
| 20260507163018 | 64 | 199 | 13.0 | 32.2 | 0.00 | 0.01 | 0.01 | 76 | 1003.5 |
| 20260507161528 | 64 | 120 | 11.3 | 33.9 | 0.00 | 0.01 | 0.01 | 75 | 1003.9 |
| 20260507160022 | 63 | 144 | 14.8 | 33.9 | 0.00 | 0.01 | 0.01 | 77 | 1004.3 |
| 20260507154516 | 63 | 150 | 16.5 | 38.2 | 0.00 | 0.01 | 0.01 | 76 | 1004.5 |
| 20260507153013 | 64 | 207 | 15.6 | 31.3 | 0.00 | 0.01 | 0.01 | 75 | 1004.6 |
| 20260507151517 | 64 | 178 | 9.6 | 26.1 | 0.00 | 0.01 | 0.01 | 76 | 1005.0 |
| 20260507150011 | 63 | 157 | 19.1 | 34.8 | 0.00 | 0.01 | 0.01 | 76 | 1005.5 |
| 20260507144506 | 64 | 176 | 14.8 | 28.7 | 0.00 | 0.01 | 0.01 | 76 | 1005.9 |
| 20260507143006 | 63 | 175 | 8.7 | 26.9 | 0.00 | 0.01 | 0.01 | 77 | 1006.0 |
| 20260507141505 | 63 | 163 | 14.8 | 33.0 | 0.00 | 0.01 | 0.01 | 78 | 1006.3 |
| 20260507140003 | 64 | 132 | 13.0 | 27.8 | 0.00 | 0.01 | 0.01 | 76 | 1006.2 |
| 20260507134507 | 64 | 159 | 15.6 | 23.5 | 0.00 | 0.01 | 0.01 | 76 | 1006.3 |
| 20260507133102 | 64 | 188 | 9.6 | 28.7 | 0.00 | 0.01 | 0.01 | 76 | 1006.4 |
| 20260507131622 | 63 | 178 | 12.2 | 25.2 | 0.01 | 0.01 | 0.01 | 78 | 1006.7 |
| 20260507130103 | 63 | 211 | 12.2 | 21.7 | 0.01 | 0.01 | 0.01 | 78 | 1006.6 |
| 20260507124555 | 62 | 213 | 13.0 | 26.1 | 0.01 | 0.01 | 0.01 | 80 | 1007.1 |
| 20260507123049 | 61 | 140 | 8.7 | 26.9 | 0.01 | 0.01 | 0.01 | 82 | 1007.0 |
| 20260507121547 | 59 | 188 | 11.3 | 21.7 | 0.00 | 0.00 | 0.00 | 84 | 1007.1 |
| 20260507120045 | 60 | 191 | 7.8 | 27.8 | 0.00 | 0.00 | 0.00 | 85 | 1008.1 |
| 20260507114643 | 61 | 173 | 17.4 | 27.8 | 0.00 | 0.00 | 0.00 | 80 | 1008.4 |
| 20260507113042 | 60 | 161 | 12.2 | 24.3 | 0.00 | 0.00 | 0.00 | 81 | 1008.5 |
| 20260507111541 | 59 | 140 | 13.9 | 22.6 | 0.00 | 0.00 | 0.00 | 84 | 1009.1 |
| 20260507110143 | 59 | 156 | 6.1 | 14.8 | 0.00 | 0.00 | 0.00 | 84 | 1009.1 |
| 20260507104540 | 58 | 223 | 6.1 | 20.0 | 0.00 | 0.00 | 0.00 | 85 | 1009.0 |
| 20260507103038 | 57 | 171 | 5.2 | 18.2 | 0.00 | 0.00 | 0.00 | 85 | 1009.7 |
| 20260507101542 | 57 | 134 | 8.7 | 21.7 | 0.00 | 0.00 | 0.00 | 85 | 1009.1 |
| 20260507100038 | 57 | 174 | 8.7 | 20.0 | 0.00 | 0.00 | 0.00 | 85 | 1009.8 |
| 20260507094533 | 57 | 138 | 7.8 | 20.9 | 0.00 | 0.00 | 0.00 | 86 | 1010.0 |
| 20260507093031 | 56 | 159 | 4.3 | 13.9 | 0.00 | 0.00 | 0.00 | 87 | 1010.8 |
| 20260507091532 | 56 | 179 | 4.3 | 13.0 | 0.00 | 0.00 | 0.00 | 86 | 1010.9 |
| 20260507090037 | 56 | 144 | 5.2 | 16.5 | 0.00 | 0.00 | 0.00 | 85 | 1010.5 |
| 20260507084534 | 57 | 131 | 8.7 | 18.2 | 0.00 | 0.00 | 0.00 | 85 | 1009.7 |
| 20260507083022 | 57 | 184 | 7.0 | 11.3 | 0.00 | 0.00 | 0.00 | 85 | 1010.3 |
| 20260507081520 | 58 | 171 | 6.1 | 19.1 | 0.00 | 0.00 | 0.00 | 84 | 1010.7 |
| 20260507080016 | 59 | 190 | 5.2 | 16.5 | 0.00 | 0.00 | 0.00 | 83 | 1011.0 |
| 20260507074614 | 59 | 169 | 8.7 | 21.7 | 0.00 | 0.00 | 0.00 | 82 | 1010.9 |
| 20260507073011 | 60 | 134 | 6.1 | 14.8 | 0.00 | 0.00 | 0.00 | 81 | 1011.1 |
| 20260507071510 | 60 | 210 | 4.3 | 13.9 | 0.00 | 0.00 | 0.00 | 80 | 1011.9 |
| 20260507070013 | 60 | 205 | 9.6 | 16.5 | 0.00 | 0.00 | 0.00 | 80 | 1011.3 |
| 20260507064506 | 60 | 198 | 4.3 | 18.2 | 0.00 | 0.00 | 0.00 | 79 | 1011.3 |
| 20260507063005 | 60 | 175 | 8.7 | 20.0 | 0.00 | 0.00 | 0.00 | 78 | 1011.3 |
| 20260507061502 | 60 | 163 | 6.1 | 19.1 | 0.00 | 0.00 | 0.00 | 76 | 1012.0 |
| 20260507060111 | 60 | 247 | 4.3 | 10.4 | 0.00 | 0.00 | 0.00 | 75 | 1012.5 |
| 20260507054559 | 60 | 218 | 5.2 | 17.4 | 0.00 | 0.00 | 0.00 | 73 | 1012.3 |
| 20260507053055 | 60 | 163 | 7.0 | 13.0 | 0.00 | 0.00 | 0.00 | 70 | 1012.5 |
| 20260507051551 | 60 | 148 | 6.1 | 13.9 | 0.00 | 0.00 | 0.00 | 68 | 1012.8 |
| 20260507050048 | 60 | 279 | 2.6 | 9.6 | 0.00 | 0.00 | 0.00 | 71 | 1013.1 |
| 20260507044548 | 60 | 171 | 2.6 | 8.7 | 0.00 | 0.00 | 0.00 | 72 | 1013.4 |